Regional Weather Roundup
Issued by NWS

Home | Current Version | Previous Version | Text Only | Print | Product List | Glossary Off
Versions: 1 2 3 4 5 6 7 8 9 10 11 12 13 14 15 16 17 18 19 20 21 22 23 24 25 26 27 28 29 30 31 32 33 34 35 36 37 38 39 40 41 42 43 44 45 46 47 48 49 50

000
ASUS43 KFSD 180902
RWRSD

WEATHER ROUNDUP FOR SOUTH DAKOTA
NATIONAL WEATHER SERVICE SIOUX FALLS SD
300 AM CST MON DEC 18 2017

NOTE: "FAIR" INDICATES FEW OR NO CLOUDS BELOW 12,000 FEET WITH NO
SIGNIFICANT WEATHER AND/OR OBSTRUCTIONS TO VISIBILITY.


SDZ001>005-009-010-012>017-181000-
NORTHWEST AND NORTH CENTRAL SOUTH DAKOTA

CITY           SKY/WX    TMP DP  RH WIND       PRES   REMARKS
BUFFALO          N/A     30  21  69 W13       29.67F WCI  20
FAITH            N/A     33  22  63 W14       29.77S WCI  23
MOBRIDGE       CLOUDY    30  23  75 SW3       29.72S
$$

SDZ012>016-024>037-041>051-057-063-072>074-181000-
SOUTHWEST AND SOUTH CENTRAL SOUTH DAKOTA

CITY           SKY/WX    TMP DP  RH WIND       PRES   REMARKS
RAPID CTY ARPT CLOUDY    30  19  63 SW7       29.82F WCI  23
PIERRE         CLOUDY    28  25  88 W13       29.80R WCI  17
CUSTER         CLOUDY    27  15  61 W12       29.81R WCI  17
ELLSWORTH AFB  CLOUDY    31  19  62 W9        29.80F WCI  23
PHILIP         CLOUDY    27  22  81 W5        29.84R WCI  22
PINE RIDGE     CLOUDY    27  19  72 W5        29.88F WCI  22
SPEARFISH      FAIR      36  19  51 W17G24    29.78F
WINNER         FAIR      32  26  78 W12       29.83S WCI  23
$$

SDZ004>011-016>023-039-040-181000-
NORTHEAST SOUTH DAKOTA

CITY           SKY/WX    TMP DP  RH WIND       PRES   REMARKS
ABERDEEN       CLOUDY    26  25  96 S9        29.76F WCI  17
WATERTOWN      CLOUDY    30  28  92 S9        29.76F WCI  22
BROOKINGS      CLEAR     29  25  85 S9        29.81F WCI  20
SISSETON         N/A     36  30  79 SW10      29.74F
$$

SDZ017-020-022-023-036>040-048>070-181000-
SOUTHEAST SOUTH DAKOTA

CITY           SKY/WX    TMP DP  RH WIND       PRES   REMARKS
SIOUX FALLS    CLEAR     29  25  85 SW9       29.84F WCI  20
HURON          CLEAR     27  25  92 MISG      29.80S
CHAMBERLAIN    CLOUDY    30  29  96 W5        29.83R WCI  25
MITCHELL       CLEAR     29  26  89 S7        29.83S WCI  22
YANKTON        CLEAR     24  21  88 SE7       29.86F WCI  16
$$

ABBREVIATIONS USED IN REMARKS
   TC - TEMPERATURE IN CELSIUS
  WCI - WIND CHILL INDEX
   HX - HEAT INDEX
  VSB - VISIBILITY





USA.gov is the U.S. government's official web portal to all federal, state and local government web resources and services.